Starlink 3608

operational
NORAD ID: 51776 Int'l Des: 2022-017 Owner: SPXS Country: US Constellation: starlink
LEOCIRCULAR

Starlink 3608について

説明を読み込み中...

リアルタイム位置

3D地球を読み込み中...

次回通過

高度履歴

Altitude vs Time

uPlot chart will show altitude changes over time

軌道要素

1 51776U 22017J 25305.41687847 .00000637 00000-0 58120-4 0 9994
2 51776 53.2171 194.9595 0001428 86.6364 273.4792 15.08835112203202
Epoch: Nov 1, 2025 • Age: 22 hours

現在のステータス

高度 558.8 km
速度 7.58 km/s
衛星直下点 -52.04°S, 75.81°W
打ち上げ日 Feb 25, 2022
運用期間 3.6 years
タイプ internet

技術仕様

分類 Payload
質量 297.00 kg
乾燥質量 275.00 kg
総質量 297.00 kg
長さ 0.20 m
直径 2.80 m
スパン 9.00 m
形状 Box + pan
製造者 SPXS
バスタイプ Starlink
フェーズステータス In Orbit
所有者/国 SPXS/US

大規模コンステレーション

Loading constellations...